Hoosier Classic - Trainer

Station: INVENTORY - T Race

Distance: 10 Miles

Release: 13-Apr-2018 08:00

Weather Release:    Arrival:

Wind at Release:     Wind at Arrival:

Temp at Release: °    Temp at Arrival: °

Lofts: 95

Birds: 323

Clocked: 298

Good Luck to Everyone!
Drops Pos Breeder Pigeon Name Color Sex Ent Arrival Speed To Win Eligible
101 Book & Van Wingerden - AZ 7018-AU17-BOOK VM Boomerang BB C 6 10:16:21.50 129.072 00:48:49 Yes
101 Sandstrom Brothers Loft - MN 0733-AU17-SBL CHWF H 2 10:16:21.50 129.072 00:48:49 Yes
103 Ganus Family Loft - IN 0731-AU17-GFL BB H 4 10:16:21.60 129.070 00:48:49 Yes
104 Van Den Bossche Brothers - ME 0296-AU17-RAND Spitfire BB H 3 10:16:22.20 129.061 00:48:49 Yes
104 Stevens Family Loft - IL 0018-AU17-MRPC BCH C 1 10:16:22.20 129.061 00:48:49 Yes
106 Avalos Loft - CA 1602-AU17-TULE PEN H 1 10:16:22.90 129.050 00:48:50 Yes
107 Aubrina & Pappy - IN 0912-AU17-VK BSP H 4 10:16:23.00 129.048 00:48:50 Yes
107 Avalos Loft - CA 1607-AU17-TULE BCH H 2 10:16:23.00 129.048 00:48:50 Yes
109 Aubrina & Pappy - IN 0931-AU17-VK DCSP H 5 10:16:24.40 129.026 00:48:52 Yes
110 Dos Hermano & Yosellaj Loft - FL 4413-AU17-HRPC !My Dream! BB C 2 10:16:27.90 128.971 00:48:55 Yes
111 Tegan Bogoslawski - IN 0065-AU17-ANDY BB H 2 10:16:32.40 128.900 00:49:00 Yes
112 Bird Dog Syndicate 2 - CA 0028-AU17-BURG BCH H 3 10:16:36.70 128.832 00:49:04 Yes
113 Hmong Syndicate - MN 0334-AU17-ROYA HMONG TIME BCH H 1 10:18:57.90 126.651 00:51:25 Yes
114 Jorge And Ayon - CA 2412-AU17-LOSB BB H 1 10:24:24.50 121.877 00:56:52 Yes
115 777-Loft - MN 0203-AU17-SPR Next Jen BCWF H 1 10:27:17.70 119.488 00:59:45 Yes
116 777-Loft - MN 0215-AU17-SPR Wild Fire BB H 2 10:27:19.20 119.468 00:59:46 Yes
117 A D L Sheila - IL 0103-AU17-ADL DCH C 1 10:27:27.30 119.358 00:59:54 Yes
118 Utaz Team - UT 0934-AU17-PSC BB H 1 10:29:42.40 117.563 01:02:10 Yes
119 Bogdan Chlebek - IL 11604-AU17-CHIC BWF C 1 10:37:42.70 111.596 01:10:10 Yes
120 Gibara Loft - FL 2623-AU17-HRPC BCH H 1 10:39:39.80 110.232 01:12:07 Yes
121 Upper Canada Loft - ON 2865-CU17-MISS Nineteen x The Duchess BB H 2 10:39:45.50 110.166 01:12:13 Yes
122 Floden Lofts - KY 5055-AU17-VK GRIZ H 2 10:41:41.40 108.850 01:14:09 Yes
123 Speed Loft - MN 0514-AU17-ROYA DCH H 1 10:44:51.20 106.762 01:17:18 Yes
124 Twin Loft - FL 0590-AU17-HRPC BB H 4 10:50:35.10 103.174 01:23:02 Yes
125 Aubrina & Pappy - IN 0907-AU17-VK DCH H 6 10:50:54.30 102.981 01:23:21 Yes
126 H & H Loft - TX 6907-AU17-VK BCH C 5 10:51:00.70 102.917 01:23:28 Yes
127 Tyler Shupe - IN 0017-AU17-TYLE BWF H 1 10:53:37.60 101.367 01:26:05 Yes
128 Master One - CA 0045-AU17-MAST BB C 3 11:02:13.00 96.588 01:34:40 Yes
129 Debbie Ganus - IN 0701-AU17-GFL CHWF H 3 11:02:13.70 96.582 01:34:41 Yes
130 Orozco's Loft - MI 0061-AU17-OROZ CHSP H 3 11:02:14.20 96.578 01:34:41 Yes
131 F T L Loft - IN 0031-AU17-HUTC BB H 7 11:02:14.80 96.572 01:34:42 Yes
132 Debbie Ganus - IN 0724-AU17-GFL BCH H 4 11:02:15.90 96.563 01:34:43 Yes
133 Ganus Family Loft - IN 0333-AU17-GFL BB H 5 11:02:16.70 96.556 01:34:44 Yes
134 Ganus Family Loft - IN 0328-AU17-GFL BB H 6 11:02:18.10 96.543 01:34:45 Yes
135 Dan & Pete - IL 0010-AU17-BFS BB H 1 11:02:18.60 96.539 01:34:46 Yes
136 Andy Skwiat - IN 0008-AU17-ANDY BB C 6 11:13:41.70 90.865 01:46:09 Yes
137 For Sale - IN 33586-AU17-ARPU Tank jr BCH C 7 11:13:42.20 90.861 01:46:09 Yes
138 For Sale - IN 2942-AU17-APOL DCH H 8 11:13:42.30 90.860 01:46:09 Yes
139 For Sale - IN 0329-AU17-GENT BCH C 9 11:13:43.10 90.854 01:46:10 Yes
140 Jones Family Loft - TX 7197-AU17-JFL BCH H 2 11:13:43.70 90.849 01:46:11 Yes
140 Erp -Duviel_ubaldo Team - GA 0024-AU17-ERP Delmon dos BB C 2 11:13:43.70 90.849 01:46:11 Yes
142 For Sale - IN 14292-AU17-ARPU BCH H 10 11:13:44.40 90.843 01:46:12 Yes
143 Stevens Family Loft - IL 0033-AU17-MRPC GRIZ C 2 11:13:45.00 90.839 01:46:12 Yes
144 Hylek Loft - IN 0303-AU17-MICH BB C 4 11:13:45.10 90.838 01:46:12 Yes
145 H & H Loft - TX 6901-AU17-VK BB C 6 11:13:45.90 90.832 01:46:13 Yes
146 Bodzianowski Loft - IL 1599-AU17-WRC CHOC C 2 11:13:46.60 90.826 01:46:14 Yes
146 Schillings - IN 0869-AU17-BFS Tommy RCH C 3 11:13:46.60 90.826 01:46:14 Yes
148 America\'s Dream Loft - IL 0017-AU17-ADL BB C 4 11:13:47.20 90.822 01:46:14 Yes
149 Richard Callahan - MO 1606-AU17-AA BB C 1 11:13:47.80 90.817 01:46:15 Yes
150 Erp -Duviel_ubaldo Team - GA 0047-AU17-ERP Gladiator BB C 3 11:13:48.40 90.812 01:46:16 Yes
151 For Sale - IN 1264-AU17-STON DCH C 11 11:13:48.50 90.811 01:46:16 Yes
152 Floden/Graham Lofts - KY 5102-AU17-VK Caboose BB H 1 11:13:49.20 90.806 01:46:16 Yes
153 Debbie Ganus - IN 0723-AU17-GFL BCH H 5 11:13:50.80 90.793 01:46:18 Yes
154 Andy Skwiat - IN 0055-AU17-ANDY BSP H 7 11:13:51.40 90.789 01:46:18 Yes
155 Van Den Bossche Brothers - ME 0872-AU17-RRV Top Dog BB C 4 11:13:52.10 90.783 01:46:19 Yes
156 Minnuies Family Loft - NJ 1552-IF17-BSC Right time BB C 1 11:13:52.70 90.779 01:46:20 Yes
157 Schillings - IN 0856-AU17-BFS SILV C 4 11:16:57.90 89.356 01:49:25 Yes
158 Book & Van Wingerden - AZ 3902-AU17-SANT BB H 7 11:17:16.80 89.213 01:49:44 Yes
159 Jim Kearney Loft - NY 4301-IF17-PERT BCH H 1 11:18:23.80 88.711 01:50:51 Yes
160 A P C Loft - TX 34701-AU17-ARPU BCH C 3 11:18:24.40 88.707 01:50:51 Yes
161 Cbp Loft - IN 0008-AU17-JHWA BB C 1 11:18:24.90 88.703 01:50:52 Yes
162 For Sale - IN 0078-CU17-SILV DCH H 12 11:18:25.50 88.699 01:50:53 Yes
163 Alca Girls - IL 0085-AU17-BEKO CLOVER BBPD C 2 11:18:26.70 88.690 01:50:54 Yes
164 Kowkow Family Loft - FL 0280-AU17-BFS BWF H 1 11:18:27.30 88.685 01:50:54 Yes
165 Tegan Bogoslawski - IN 0127-AU17-ANDY BB C 3 11:18:27.90 88.681 01:50:55 Yes
165 For Sale - IN 30013-AU17-ARPU BB H 13 11:18:27.90 88.681 01:50:55 Yes
167 F T L Loft - IN 0036-AU17-HUTC BB C 8 11:18:28.00 88.680 01:50:55 Yes
168 Aztec Loft - DE 0295-AU17-AZTE G Power GRIZ C 2 11:18:28.60 88.675 01:50:56 Yes
168 777-Loft - MN 0206-AU17-SPR It's Crazy.... BB H 3 11:18:28.60 88.675 01:50:56 Yes
170 Hillside Loft - ME 0320-AU17-GENT New Moon BCH H 4 11:18:29.30 88.670 01:50:56 Yes
171 Andy Skwiat - IN 0040-AU17-ANDY Wild Dog PNSP C 8 11:18:29.90 88.666 01:50:57 Yes
171 A D L Sheila - IL 0111-AU17-ADL BWF C 2 11:18:29.90 88.666 01:50:57 Yes
173 Mc Laughlin Lofts - MA 1038-AU17-MCLO BB H 2 11:18:30.00 88.665 01:50:57 Yes
174 Tyler Shupe - IN 0015-AU17-TYLE BB C 2 11:18:30.60 88.661 01:50:58 Yes
174 Tyler Shupe - IN 0018-AU17-TYLE BWF C 3 11:18:30.60 88.661 01:50:58 Yes
176 Shang N Dennis Yoh - CA 2300-AU17-JEDD Sweet Caroline BBWF C 1 11:18:31.30 88.655 01:50:58 Yes
177 Bodzianowski Loft - IL 1562-AU17-WRC BCH C 3 11:18:32.10 88.649 01:50:59 Yes
177 Jorge And Ayon - CA 2453-AU17-LOSB BCH C 2 11:18:32.20 88.649 01:50:59 Yes
177 Ganus Family Loft - IN 0322-AU17-GFL BB H 7 11:18:32.20 88.649 01:50:59 Yes
177 Van Den Bossche Brothers - ME 0886-AU17-RRV Rascal BB C 5 11:18:32.20 88.649 01:50:59 Yes
181 Sandstrom Brothers Loft - MN 0716-AU17-SBL BCH H 3 11:18:33.20 88.641 01:51:00 Yes
182 Macken/Zittler - MN 0628-AU17-MACK WHIT C 1 11:18:33.30 88.640 01:51:00 Yes
183 Rpm Syndicate - ON 0009-AU17-BFS BB H 5 11:18:33.90 88.636 01:51:01 Yes
183 Stevens Family Loft - IL 0027-AU17-MRPC BB C 3 11:18:33.90 88.636 01:51:01 Yes
185 John Fukumoto - HI 0331-AU17-HAWN BB H 2 11:18:34.60 88.631 01:51:02 Yes
185 For Sale - IN 2258-AU17-SCHE DCH H 14 11:18:34.60 88.631 01:51:02 Yes
187 Ken Easley & Son Racing - NM 5018-AU17-EASL 1139 x 119 DCH H 2 11:18:35.30 88.626 01:51:02 Yes
188 H & H Loft - TX 6930-AU17-VK BB C 7 11:18:36.30 88.618 01:51:03 Yes
189 Rpm Syndicate - ON 0103-IF17-BUFF BB C 6 11:18:37.30 88.611 01:51:04 Yes
190 Hylek Loft - IN 0318-AU17-MICH BB C 5 11:18:39.30 88.596 01:51:06 Yes
191 For Sale - IN 0601-AU17-LCC BB H 15 11:18:40.20 88.589 01:51:07 Yes
192 For Sale - IN 0401-AU17-SLL BB C 16 11:18:41.00 88.583 01:51:08 Yes
193 Hylek Loft - IN 0304-AU17-MICH BB C 6 11:18:41.10 88.582 01:51:08 Yes
194 F T L Loft - IN 6271-AU17-VK BCH H 9 11:18:41.70 88.578 01:51:09 Yes
195 Stevens Family Loft - IL 0037-AU17-MRPC BB C 4 11:18:42.70 88.571 01:51:10 Yes
196 Malloy Flying Loft - TX 0118-AU17-MALL BB H 2 11:18:43.30 88.566 01:51:10 Yes
197 Twin Loft - FL 0595-AU17-BLES BB C 5 11:18:43.40 88.565 01:51:11 Yes
198 F T L Loft - IN 0075-AU17-HUTC BB C 10 11:18:44.20 88.559 01:51:11 Yes
198 Dan & Pete - IL 0001-AU17-BFS BB H 2 11:18:44.30 88.559 01:51:11 Yes
200 Book & Van Wingerden - AZ 7046-AU17-BOOK BWF C 8 11:18:44.90 88.554 01:51:12 Yes

There are 325 bird records

Note: These Race Results are unofficial and subject to change until verified by the Race Committee and declared final.